Weather History for Moline, IL

Change the Weather History Date:

Monday, November 3, 2014

  Actual Average Record
Temperature  
Mean Temperature 56 °F 46 °F  
Max Temperature 68 °F 56 °F 77 °F (1938)
Min Temperature 44 °F 37 °F 12 °F (1951)
Degree Days  
Heating Degree Days 9 19  
Month to date heating degree days 68 55  
Since 1 July heating degree days 598 537  
Cooling Degree Days 0 0  
Month to date cooling degree days 0 0  
Year to date cooling degree days 839 1003  
Growing Degree Days 6 (Base 50)    
Moisture  
Dew Point 39 °F    
Average Humidity 58    
Maximum Humidity 78    
Minimum Humidity 38    
Precipitation  
Precipitation 0.08 in 0.09 in 3.09 in (1935)
Month to date precipitation 0.08 0.28  
Year to date precipitation 37.08 33.50  
Snow  
Snow 0.00 in 0.00 in - ()
Month to date snowfall 0.0 0.0  
Since 1 July snowfall T 0.0  
Since 1 September snowfall T 0.0  
Snow Depth 0.00 in    
Sea Level Pressure  
Sea Level Pressure 29.99 in    
Wind  
Wind Speed 13 mph (SSW)    
Max Wind Speed 21 mph    
Max Gust Speed 29 mph    
Visibility 10 miles    
Events Rain    
T = Trace of Precipitation, MM = Missing Value Source: NWS Daily Summary

Daily Weather History Graph

Daily Weather History Graph

Search for Another Location

Airport:

Trip Planner

Search our weather history database for the weather conditions in past years. The results will help you decide how hot, cold, wet, or windy it might be!

Date:

Astronomy

Nov. 03, 2014 Rise Set
Actual Time 6:36 AM CST 4:54 PM CST
Civil Twilight 6:07 AM CST 5:23 PM CST
Nautical Twilight 5:34 AM CST 5:56 PM CST
Astronomical Twilight 5:02 AM CST 6:28 PM CST
Moon 3:06 PM CST (11/3) 2:43 AM CST (11/3)
Length of Visible Light 11h 16m
Length of Day
10h 18m
Waxing Gibbous, 87% of the Moon is Illuminated
Nov 3
Waxing Gibbous
Nov 6
Full
Nov 14
Last Quarter
Nov 22
New
Nov 29
First Quarter

Hourly Weather History & Observations

Time (CST) Temp. Windchill Dew Point Humidity Pressure Visibility Wind Dir Wind Speed Gust Speed Precip Events Conditions
12:52 AM 45.0 °F 40.6 °F 24.1 °F 44% 30.10 in 10.0 mi South 8.1 mph - N/A   Clear
1:52 AM 45.0 °F 39.7 °F 24.1 °F 44% 30.09 in 10.0 mi South 10.4 mph 18.4 mph N/A   Clear
2:52 AM 45.0 °F 39.3 °F 25.0 °F 46% 30.08 in 10.0 mi South 11.5 mph - N/A   Clear
3:52 AM 44.1 °F 37.7 °F 25.0 °F 47% 30.07 in 10.0 mi South 12.7 mph - N/A   Clear
4:52 AM 45.0 °F 39.3 °F 26.1 °F 48% 30.06 in 10.0 mi South 11.5 mph - N/A   Clear
5:52 AM 45.0 °F 40.6 °F 27.0 °F 49% 30.06 in 10.0 mi South 8.1 mph 20.7 mph N/A   Clear
6:52 AM 45.0 °F 41.2 °F 28.0 °F 52% 30.06 in 10.0 mi South 6.9 mph - N/A   Clear
7:52 AM 48.0 °F - 28.9 °F 48% 30.06 in 10.0 mi South 12.7 mph 20.7 mph N/A   Clear
8:52 AM 52.0 °F - 32.0 °F 47% 30.05 in 10.0 mi SSW 13.8 mph 24.2 mph N/A   Clear
9:52 AM 55.0 °F - 34.0 °F 45% 30.04 in 10.0 mi SSW 15.0 mph 23.0 mph N/A   Clear
10:52 AM 61.0 °F - 37.9 °F 42% 30.03 in 10.0 mi SW 17.3 mph 24.2 mph N/A   Clear
11:52 AM 63.0 °F - 41.0 °F 45% 29.99 in 10.0 mi SSW 12.7 mph 25.3 mph N/A   Clear
12:52 PM 66.0 °F - 43.0 °F 43% 29.97 in 10.0 mi SSW 16.1 mph 23.0 mph N/A   Clear
1:52 PM 68.0 °F - 44.1 °F 42% 29.94 in 10.0 mi SSW 16.1 mph - N/A   Overcast
2:52 PM 66.0 °F - 44.1 °F 45% 29.93 in 10.0 mi SSW 11.5 mph 23.0 mph N/A   Clear
3:52 PM 66.0 °F - 45.0 °F 47% 29.94 in 10.0 mi SSW 11.5 mph 21.9 mph N/A   Mostly Cloudy
4:52 PM 66.0 °F - 46.0 °F 48% 29.94 in 10.0 mi SSW 15.0 mph - N/A   Overcast
5:52 PM 66.0 °F - 46.9 °F 50% 29.94 in 10.0 mi South 10.4 mph - N/A   Overcast
6:52 PM 66.0 °F - 46.9 °F 50% 29.93 in 10.0 mi South 11.5 mph - N/A   Overcast
7:52 PM 66.0 °F - 48.0 °F 52% 29.91 in 10.0 mi SSW 17.3 mph 27.6 mph N/A   Overcast
8:52 PM 66.0 °F - 51.1 °F 59% 29.91 in 10.0 mi SSW 15.0 mph 26.5 mph N/A   Overcast
9:52 PM 63.0 °F - 53.1 °F 70% 29.92 in 8.0 mi SW 13.8 mph 23.0 mph 0.00 in Rain Light Rain
10:52 PM 61.0 °F - 54.0 °F 78% 29.91 in 8.0 mi SW 12.7 mph - 0.05 in Rain Light Rain
11:52 PM 60.1 °F - 55.9 °F 86% 29.91 in 7.0 mi SW 12.7 mph 21.9 mph 0.02 in Rain Light Rain